Helicity
172 198 164 181 209 171 151 92 37 33 32 38 31 32 42 56 54 31 17 -26 36 19 16 3 2 18 56 68 68 85 67 6 13 48 56 122 25 44 84 42 72 28 62 148 177
135 167 196 176 179 215 197 165 63 31 32 36 42 42 41 45 44 29 30 21 71 30 27 -13 15 20 43 57 38 86 76 91 118 130 123 9 16 44 34 10 20 94 116 138 150
159 125 150 198 181 184 193 197 184 43 31 34 37 49 54 54 -29 -4 75 90 68 35 7 4 14 30 43 53 54 54 37 138 33 116 151 75 46 90 36 1 30 63 146 144 130
141 143 117 147 194 203 174 202 206 168 39 28 35 45 70 57 57 48 26 14 34 28 33 42 33 41 69 43 52 64 45 105 105 63 87 60 68 59 34 13 84 122 117 159 105
121 107 123 121 163 192 180 193 207 172 65 39 34 53 80 39 58 49 39 1 -7 39 15 19 36 43 58 60 53 52 83 115 83 57 75 107 63 54 43 28 37 97 131 149 125
79 98 111 107 118 158 168 172 208 187 226 55 57 74 72 70 47 39 70 68 39 24 13 23 47 33 67 79 86 72 73 96 83 62 39 63 52 57 23 29 40 63 127 95 139
104 94 89 106 103 138 165 170 201 207 173 27 70 69 61 64 116 132 76 62 48 44 13 19 30 128 81 132 81 100 100 127 120 75 66 81 44 53 37 87 64 63 78 129 85
94 105 94 101 86 119 119 151 185 211 190 46 95 107 106 33 52 68 62 65 85 66 28 46 57 100 110 119 133 105 98 115 69 60 112 125 62 53 131 89 73 62 104 116 87
78 60 85 89 82 84 98 84 195 182 168 57 148 191 158 -3 82 61 58 51 50 73 66 106 113 85 119 133 131 102 123 67 104 96 167 126 61 111 102 72 57 56 59 56 105
62 62 61 64 68 67 83 129 169 156 104 33 169 107 177 125 94 50 63 50 60 80 93 119 158 106 98 141 142 107 79 82 89 93 106 67 67 71 77 63 59 72 59 67 108
56 51 56 62 66 54 21 12 172 143 111 326 163 222 160 29 122 64 79 84 68 89 122 122 141 143 82 64 65 69 98 117 88 118 76 42 72 66 60 62 54 52 56 60 89
67 61 51 65 70 56 -0 88 234 160 295 208 189 71 73 140 155 158 73 187 154 161 103 130 132 104 50 34 35 77 163 169 154 133 79 32 54 49 54 44 47 60 73 53 76
81 64 61 45 57 20 -18 40 18 -134 132 175 158 176 206 249 199 112 115 124 190 144 117 121 108 89 51 63 77 96 118 131 108 107 88 67 41 55 91 108 65 70 75 84 56
69 72 54 39 9 79 17 71 81 -25 74 147 129 116 137 182 234 161 86 132 227 131 106 83 54 24 42 89 84 117 109 83 111 159 125 127 -4 114 76 38 52 74 119 130 131
37 91 62 39 14 36 52 -73 -12 85 141 84 128 167 191 266 224 191 145 87 177 159 132 144 96 70 74 35 83 107 101 119 118 116 116 124 102 6 17 69 61 142 122 113 146
30 49 75 34 19 -5 13 11 -89 202 202 165 84 127 227 217 165 144 241 111 103 137 84 78 135 88 132 114 137 121 105 127 135 121 101 87 92 21 24 56 132 142 55 33 65
18 18 34 39 34 2 20 39 110 275 215 142 170 70 137 260 176 292 167 174 220 238 180 145 111 196 176 181 154 140 224 176 120 165 133 51 64 177 96 147 90 119 142 134 97
37 31 34 29 17 -3 36 60 169 233 179 182 117 57 86 175 235 348 185 206 190 289 314 269 254 213 224 212 204 213 226 280 157 103 32 109 106 131 26 29 22 95 73 49 77
66 74 60 31 25 25 74 144 163 179 217 153 110 43 33 72 169 286 437 304 266 295 329 230 206 135 263 264 160 267 169 101 101 87 108 171 171 128 96 60 147 201 102 96 97
33 36 36 39 12 54 100 107 93 189 149 163 156 54 60 54 178 231 264 194 231 167 179 209 164 146 208 116 87 189 165 165 195 169 165 163 150 141 79 63 223 129 73 65 86
34 31 72 15 63 97 122 111 41 87 166 32 163 102 89 85 117 199 276 157 167 177 153 178 166 182 271 264 191 162 190 197 177 223 212 145 119 136 103 235 247 134 97 70 99
60 38 32 44 106 126 94 87 23 38 80 94 34 142 162 136 64 137 121 213 113 193 157 170 226 209 132 175 128 124 129 206 263 239 140 135 150 208 170 177 177 161 138 85 80
12 55 22 60 28 49 51 15 12 26 82 -109 -82 39 206 132 133 45 80 62 213 84 178 172 294 243 159 165 144 150 138 167 167 182 130 185 212 118 128 235 208 106 65 61 60
19 5 34 72 46 29 -21 18 24 -3 -3 77 -173 -55 197 159 148 160 31 78 59 164 100 214 243 296 386 294 417 227 158 127 130 165 162 139 127 191 175 141 112 99 68 94 91
-2 13 34 55 50 1 6 -93 58 68 9 -0 50 -120 42 141 267 170 66 161 183 130 50 221 161 133 145 203 136 119 122 106 141 161 212 169 117 84 97 119 101 97 120 131 152
4 -8 62 49 49 22 -0 -25 5 45 20 -0 -67 -130 -61 9 320 544 403 171 215 125 143 264 121 80 81 58 88 105 82 94 101 114 111 94 22 99 94 99 150 118 108 100 92
33 28 46 41 37 32 8 9 -26 16 98 74 18 50 -51 -150 33 224 198 255 338 206 168 229 169 121 60 55 77 93 107 119 99 61 95 91 85 93 62 71 99 138 151 90 99
Wind_Speed
81 81 77 75 75 76 74 74 67 68 68 68 67 66 67 69 73 68 68 52 49 44 42 41 32 31 34 43 39 40 35 24 21 32 13 11 15 24 34 16 27 21 28 16 21
82 82 83 79 77 75 76 75 73 67 68 68 68 67 67 68 73 77 68 54 40 39 38 40 36 35 34 36 32 40 37 33 32 25 27 13 7 9 12 9 14 16 18 13 12
82 83 83 84 81 78 77 79 75 68 67 66 66 66 65 65 69 59 39 37 39 38 43 45 44 37 44 39 36 44 60 55 34 32 33 26 24 30 13 9 7 7 9 10 12
84 83 83 83 84 81 79 79 80 76 64 65 63 63 62 56 66 37 31 37 40 39 46 51 51 54 51 55 45 55 51 70 45 34 37 34 35 26 18 24 34 31 10 5 3
84 83 82 82 83 84 81 79 80 82 76 63 60 58 61 71 76 57 54 46 40 39 49 50 51 51 52 52 50 54 59 59 44 35 44 50 43 40 43 38 42 30 25 9 5
84 82 84 83 83 83 83 81 81 81 79 64 56 54 66 93 62 62 50 49 47 41 50 52 51 50 55 64 56 47 50 65 44 48 47 52 58 53 47 45 42 37 25 24 24
84 84 84 83 82 82 81 83 83 83 81 67 54 56 80 91 57 39 45 52 47 41 52 53 54 53 50 61 61 54 60 60 62 54 53 49 63 66 68 49 52 46 39 23 27
84 85 83 83 82 80 82 82 83 83 81 62 57 61 97 67 75 83 59 51 49 46 55 48 53 54 59 47 46 54 60 68 57 51 45 41 66 66 43 33 43 47 32 30 22
84 84 85 85 81 79 80 83 85 82 78 58 57 59 92 56 81 64 54 53 44 48 48 54 53 58 57 62 62 54 63 60 62 45 42 45 57 42 35 39 43 44 42 35 29
82 80 80 81 77 78 78 85 84 79 68 56 63 55 78 76 59 61 57 57 51 44 48 58 56 65 70 62 71 64 64 67 61 44 45 50 60 63 57 48 47 46 43 40 30
82 79 78 76 73 74 72 68 70 70 69 83 74 80 47 46 53 52 50 50 54 52 66 54 71 78 72 70 66 72 68 64 55 40 47 55 68 70 67 64 62 58 54 52 46
78 76 76 75 71 67 62 67 61 50 81 88 96 90 97 51 62 63 44 60 66 73 58 62 91 75 66 68 71 76 77 71 65 56 56 66 77 72 72 75 67 61 55 55 50
78 77 76 75 74 64 62 69 60 58 79 87 81 87 68 73 79 61 55 60 73 74 69 80 70 60 73 73 77 74 74 71 71 65 61 73 92 86 71 64 59 60 61 59 56
78 77 75 75 65 57 62 43 49 54 83 96 83 88 87 64 87 74 56 60 65 84 74 77 72 56 69 81 70 82 63 66 73 73 83 63 85 77 78 76 62 58 57 52 47
77 76 75 67 68 65 63 49 51 50 107 67 81 61 84 81 67 83 68 65 79 69 75 84 66 77 66 70 64 74 58 66 68 72 80 81 90 80 65 68 59 45 42 44 40
73 74 75 68 61 67 63 60 51 79 107 70 58 75 75 91 88 62 69 65 71 73 70 80 61 67 70 59 59 56 60 62 68 70 93 79 76 78 67 54 45 34 40 38 36
70 76 75 71 70 64 56 48 71 96 63 72 73 69 85 95 89 80 75 83 88 89 91 75 78 55 55 59 52 52 51 67 73 74 85 63 66 70 51 53 53 46 48 50 36
68 76 68 70 71 62 55 56 86 85 94 55 64 78 89 84 93 79 79 83 83 77 75 83 87 64 55 57 54 56 52 64 75 74 72 50 65 59 46 44 44 45 40 40 39
71 69 59 61 57 55 57 81 79 83 65 70 80 78 91 91 81 92 88 87 84 76 80 80 86 53 55 54 50 56 71 58 82 89 80 67 58 50 47 50 43 42 44 48 43
54 52 55 61 56 50 66 84 80 85 79 64 85 73 73 93 87 91 93 91 84 78 72 58 74 60 53 47 63 51 49 61 66 78 86 76 75 69 49 46 34 40 42 43 41
37 43 43 41 28 52 73 75 80 95 84 76 72 81 86 75 92 87 89 74 80 73 73 77 61 54 50 66 58 64 63 57 54 65 69 74 63 45 46 25 27 39 37 42 39
30 34 35 34 32 50 79 74 80 79 84 96 83 81 74 77 88 94 95 85 65 76 81 71 68 70 68 55 52 57 69 62 65 62 68 76 79 40 34 26 31 38 40 42 32
30 30 42 43 51 59 68 84 88 88 93 77 86 84 83 78 69 105 92 81 71 69 76 67 72 76 74 65 58 65 59 61 69 66 77 67 55 32 30 35 36 38 38 36 30
26 33 24 30 52 56 58 63 82 88 95 101 97 81 86 100 81 64 120 78 80 60 69 67 67 76 83 73 53 57 63 60 60 74 72 71 67 48 36 33 34 36 33 28 26
18 23 26 33 45 53 59 60 68 68 84 92 108 109 88 79 89 98 86 76 72 75 84 69 80 70 79 61 50 57 58 61 66 65 66 63 60 57 60 49 47 47 45 36 23
20 22 33 42 63 70 65 63 73 74 82 92 109 100 105 104 92 77 69 80 76 87 68 62 72 73 73 75 79 57 54 47 50 57 67 67 61 60 64 58 50 40 39 37 34
21 31 31 36 58 68 69 70 67 66 66 76 100 106 106 116 78 78 79 84 74 82 74 60 61 57 72 64 61 86 54 50 45 43 48 56 66 56 58 60 59 48 43 40 39
Wind_Direction
296 294 297 297 295 292 293 291 291 291 291 291 292 294 295 296 293 289 280 286 294 285 288 282 288 285 277 261 270 270 282 292 304 286 352 22 94 296 271 355 289 326 305 38 83
296 294 292 294 295 293 291 291 289 288 289 290 291 293 294 296 291 281 281 283 290 286 281 273 275 275 272 270 275 264 273 283 293 297 301 345 61 49 345 59 29 3 357 10 56
300 294 293 290 291 292 291 286 290 287 286 288 289 291 293 296 287 286 306 292 282 280 272 271 269 272 268 270 268 266 258 263 295 291 288 301 304 296 352 350 75 110 122 88 98
301 298 294 291 289 289 290 289 284 288 284 285 287 289 292 289 271 294 312 306 286 273 269 268 266 263 266 263 268 263 265 255 286 288 283 288 292 306 311 308 310 320 62 76 67
304 298 296 292 290 287 289 288 285 280 281 281 283 288 284 269 266 280 292 294 292 270 263 264 263 263 262 267 267 265 266 267 277 289 279 277 283 289 292 299 295 312 312 313 295
305 302 297 294 289 288 285 287 285 283 281 279 277 282 273 262 280 281 281 283 279 266 261 261 264 265 266 263 266 272 272 266 276 277 280 279 278 283 289 294 296 297 296 297 299
310 305 300 297 292 287 286 284 283 282 278 274 273 274 265 258 278 287 286 277 273 266 260 261 262 269 269 270 267 271 272 273 268 273 278 282 279 279 281 287 289 292 296 292 296
309 307 304 301 293 292 285 285 283 280 277 270 270 269 261 270 265 264 274 276 272 269 260 265 264 268 264 276 276 269 269 267 273 271 275 281 279 282 294 294 293 294 290 292 287
309 307 305 302 295 292 289 284 282 277 275 267 267 265 262 271 256 262 259 263 270 266 262 263 262 259 262 261 263 264 266 267 273 275 273 277 284 298 295 298 297 296 297 298 291
316 314 309 304 298 292 293 286 277 277 270 259 257 264 263 258 263 257 257 256 258 259 257 253 257 252 253 254 256 262 264 269 270 271 274 277 280 281 286 292 293 294 294 295 290
314 312 313 310 303 296 294 290 271 266 256 246 251 254 273 281 266 254 246 244 250 251 246 248 247 246 250 255 260 262 265 267 275 270 275 279 280 282 286 287 288 290 292 291 289
317 315 314 311 305 298 292 279 268 274 264 258 253 254 256 274 259 248 239 236 238 243 244 249 246 249 254 255 257 260 264 268 273 278 279 279 279 285 285 284 286 289 290 291 290
314 313 312 311 303 296 286 277 276 273 264 257 253 249 249 250 252 252 230 233 236 240 241 245 254 252 252 254 256 258 261 267 270 277 282 283 279 281 285 287 289 288 289 288 287
314 311 307 309 302 299 286 287 279 272 261 252 250 249 242 253 248 246 237 231 243 239 243 249 248 248 250 252 254 257 265 270 273 276 274 287 280 281 286 288 291 292 293 291 286
319 309 302 307 297 289 282 292 285 267 249 252 244 250 239 240 249 240 243 231 239 242 238 244 245 246 249 251 256 260 268 271 274 274 278 278 280 284 289 288 291 295 299 306 308
323 312 299 299 295 286 282 279 277 244 244 250 249 237 231 233 240 247 237 231 240 243 245 247 252 251 253 258 255 264 267 272 274 277 273 277 277 285 286 286 301 306 306 307 310
324 313 299 290 285 285 284 275 249 239 250 247 244 239 231 232 234 230 227 227 230 233 238 244 246 251 259 247 253 256 256 265 269 268 272 284 278 277 290 294 297 305 306 308 310
324 313 304 290 278 279 270 262 245 241 241 256 247 240 236 230 232 222 223 228 229 233 237 237 243 240 248 248 247 248 248 260 266 269 279 283 278 283 291 303 303 307 312 315 313
324 315 305 290 277 272 259 249 245 238 243 248 242 241 236 230 230 224 230 227 223 226 235 237 245 247 245 249 243 250 250 262 271 272 277 277 284 291 292 297 303 310 312 313 314
334 325 307 282 271 265 252 250 249 245 245 256 238 241 237 229 229 223 225 233 232 226 232 248 250 247 247 248 250 252 256 259 262 268 270 276 280 285 292 290 296 313 320 322 322
346 335 326 292 272 259 253 253 252 246 247 245 247 242 241 237 230 225 229 238 227 222 230 236 252 248 236 245 245 244 251 261 269 265 273 278 283 300 286 290 297 313 324 323 324
353 336 334 305 274 267 252 253 251 248 246 245 249 246 248 245 235 233 232 231 226 227 223 230 249 248 246 253 255 248 248 252 262 268 268 275 278 301 312 299 305 312 320 323 328
352 339 309 283 277 272 264 253 250 247 245 243 239 242 244 245 250 232 237 236 237 223 225 221 246 244 250 251 257 252 249 256 259 270 267 272 285 313 283 284 298 307 318 323 322
354 345 350 301 276 274 271 268 255 248 245 241 239 244 246 243 248 244 222 236 238 239 232 223 240 240 242 251 251 249 252 253 254 259 267 265 274 286 293 293 299 305 312 314 319
351 344 335 311 287 275 273 270 265 257 247 241 238 237 239 244 244 238 238 236 236 236 240 228 236 245 247 257 245 253 254 253 250 253 261 273 273 276 279 286 294 298 303 302 301
324 333 330 306 282 273 269 266 262 263 250 240 233 234 236 240 237 237 256 237 238 234 241 221 236 244 252 251 256 257 258 243 245 257 266 273 271 278 282 289 298 305 308 310 305
320 309 309 308 286 274 268 265 265 269 260 248 236 236 237 230 245 247 257 247 252 239 231 220 232 240 246 251 258 257 242 256 254 251 260 260 272 281 282 283 287 294 301 306 305